RH
21 22 25 26 27 26 25 27 27 26 26 26 27 29 29 30 31 30 30 30 30 34 34 32 34 34 35 36 38 41 43 45 48 49 49 49 49 49 49 46 45 46 49 47 35 28 30 30 30 33 32 33 32 31 30 29 31 30 28 30 31 27 28 29 31 31 29 29 29 28 26 26 27 27 26 25 25 24 24 25 25 25 24 24 23 24
19 22 25 24 24 24 25 27 27 27 27 26 27 29 30 30 30 29 31 31 30 34 35 32 34 35 35 36 38 41 44 46 49 50 49 49 48 50 50 46 46 48 50 46 35 30 32 30 32 34 33 34 33 32 30 31 32 29 27 31 29 27 27 28 31 31 29 30 30 29 28 26 27 26 26 24 23 23 23 24 23 23 22 21 21 22
20 23 24 22 21 22 24 26 27 28 27 27 27 29 32 32 30 30 32 32 31 35 36 34 35 35 35 36 38 42 44 47 51 52 51 50 50 51 51 46 46 49 49 45 36 32 33 32 34 35 35 35 32 32 31 32 32 27 28 29 25 26 25 25 30 29 30 33 30 29 28 27 25 24 23 22 21 20 21 21 20 20 20 20 20 22
21 23 22 20 22 23 24 24 27 28 26 28 28 29 32 31 30 32 33 33 32 35 36 36 37 37 36 37 40 43 45 49 53 53 53 53 53 54 53 48 48 49 49 46 37 33 34 33 35 36 36 35 32 33 33 33 32 26 29 29 22 24 24 26 28 26 32 34 29 29 28 26 24 22 21 19 18 18 18 18 16 16 17 18 21 22
22 22 19 20 22 23 23 24 26 28 26 28 30 30 30 30 30 31 32 32 32 35 38 39 39 39 40 41 44 46 47 51 54 54 56 57 56 56 54 50 50 51 51 47 37 34 35 35 35 36 37 35 33 34 33 33 32 26 28 29 24 23 26 29 26 25 33 33 30 30 27 25 23 20 19 19 19 17 17 16 15 15 14 16 19 21
22 20 19 22 22 21 22 23 24 27 27 28 31 30 29 29 30 31 31 32 34 38 39 40 42 42 41 43 45 48 50 54 56 56 59 60 57 56 54 52 52 53 53 48 38 35 37 36 36 37 38 36 34 35 34 32 32 28 27 28 26 22 24 29 26 26 33 33 32 32 29 28 26 23 22 22 22 21 19 17 16 16 15 15 18 20
22 20 21 23 23 21 22 22 23 25 28 28 29 29 29 29 30 32 32 33 36 39 38 42 46 45 43 44 46 49 53 56 57 57 60 60 57 56 56 55 55 55 54 48 39 36 39 38 38 39 38 36 33 34 34 31 32 30 26 25 25 22 24 28 25 26 32 33 33 34 32 31 30 29 26 23 23 23 21 19 19 18 15 16 17 19
23 23 23 24 22 20 21 22 22 24 27 28 27 28 29 29 30 32 33 35 37 39 41 44 45 45 45 46 47 51 54 55 56 59 60 60 58 57 57 57 57 56 55 49 40 38 41 40 40 41 39 36 34 34 34 31 31 30 26 25 23 21 24 26 23 26 33 34 35 35 33 31 30 30 28 25 25 24 21 19 19 19 17 17 18 19
23 24 25 25 22 21 22 22 22 25 27 27 27 27 28 29 32 33 34 37 39 42 45 45 43 44 46 46 49 53 54 55 57 61 62 61 60 59 58 58 58 58 56 50 42 40 43 42 42 42 40 37 35 35 34 32 32 29 25 24 22 21 24 22 22 28 34 35 36 36 33 30 28 29 28 27 26 24 20 18 19 19 18 19 19 20
23 23 24 24 22 22 24 23 22 25 27 26 27 28 29 31 34 36 38 39 41 45 47 44 42 47 49 48 50 53 53 55 59 62 63 63 61 60 58 58 59 60 57 50 43 42 44 43 43 44 42 38 36 35 35 34 31 27 25 25 23 23 23 21 22 28 33 35 35 35 32 29 27 27 26 26 25 24 20 18 20 20 19 19 20 21
22 22 23 22 22 23 24 24 23 24 26 27 28 30 32 34 34 36 39 38 42 47 46 42 43 49 54 50 49 52 54 58 63 64 64 63 62 61 58 58 60 60 57 50 43 43 46 44 44 45 42 39 38 36 34 35 31 27 26 26 24 23 22 21 23 27 32 33 33 33 31 29 27 26 26 25 24 23 20 19 20 21 20 20 20 21
23 23 22 22 22 22 23 24 24 25 26 28 29 29 32 33 32 36 39 40 47 49 43 43 45 49 55 51 47 53 58 62 65 65 66 65 63 62 59 58 60 61 56 49 43 44 46 46 45 45 42 39 38 36 35 36 31 25 26 24 23 23 22 23 25 28 31 31 32 32 31 29 27 26 26 26 25 23 22 20 20 21 20 20 21 22
25 23 22 22 22 22 23 23 24 26 26 27 29 30 34 35 35 40 41 40 44 44 41 44 47 48 50 47 48 55 60 62 63 63 66 64 63 63 60 59 61 61 56 49 45 46 48 49 48 46 43 40 39 37 35 35 29 23 25 23 23 23 23 25 27 29 32 30 31 31 30 29 27 26 26 26 25 23 22 22 21 22 23 23 24 24
25 25 24 23 22 21 22 23 26 27 27 29 31 33 38 40 44 48 43 40 43 43 41 42 46 48 49 46 49 54 57 59 59 61 64 64 64 64 61 61 62 59 55 50 46 48 50 51 50 48 45 41 39 36 34 34 27 22 24 23 23 23 23 27 29 30 32 31 32 31 29 28 26 26 26 25 25 23 22 22 22 24 24 26 26 26
25 24 24 25 22 22 24 25 27 29 31 32 31 33 38 40 46 51 48 48 49 45 42 43 47 51 51 50 50 52 55 56 58 61 64 65 65 64 63 62 61 57 55 51 48 49 52 52 50 50 46 42 40 34 31 32 27 23 24 23 23 24 24 27 30 31 32 32 32 31 30 27 26 26 26 26 25 23 23 23 23 24 26 27 28 27
25 23 24 25 22 21 26 26 26 30 32 32 30 34 38 37 40 45 47 47 46 49 49 46 48 49 48 50 51 53 56 57 60 64 66 67 65 64 65 64 62 60 57 52 49 49 53 53 50 50 48 44 40 34 31 32 28 24 25 24 24 24 25 28 30 31 33 33 33 32 30 28 25 25 25 25 24 23 23 24 24 25 26 28 28 29
26 24 24 25 23 22 25 26 27 29 31 31 32 34 37 36 36 42 47 43 46 57 53 44 46 47 47 51 51 53 58 59 63 65 66 67 64 64 65 63 62 61 56 52 50 50 53 54 51 51 50 47 42 36 33 31 27 24 25 25 25 25 26 29 31 33 32 32 33 33 31 28 25 25 25 25 24 24 23 24 25 26 26 27 28 29
26 27 24 24 26 25 24 25 26 28 30 33 33 33 35 36 36 41 48 46 48 56 49 43 50 52 52 56 53 53 59 61 64 65 65 65 65 66 66 65 64 62 55 51 51 51 54 55 53 53 53 50 44 38 35 30 24 23 25 26 26 26 27 29 30 32 32 31 32 34 32 29 25 24 25 25 24 24 24 25 25 26 26 28 29 29
24 28 25 22 26 28 25 26 28 28 30 32 32 31 34 40 43 43 48 52 56 58 50 45 50 52 52 55 54 55 60 61 64 66 65 66 68 69 68 68 68 62 53 51 51 51 54 56 56 55 54 52 47 40 35 28 23 24 26 27 27 27 28 30 30 31 32 32 32 33 32 29 26 24 25 25 24 24 25 25 26 26 27 28 29 29
22 25 25 23 26 28 26 27 30 30 30 31 31 32 34 40 44 44 46 51 56 60 57 52 52 51 50 51 52 55 58 61 65 67 66 69 71 71 70 72 71 61 53 52 51 51 54 57 57 56 55 54 49 42 35 27 22 24 27 28 29 29 28 30 31 30 32 31 31 32 31 29 26 24 25 25 25 25 25 25 26 26 27 28 29 30
21 22 23 24 26 28 28 27 28 28 30 31 32 34 35 37 41 44 46 47 52 58 61 61 58 49 45 49 52 53 57 62 65 66 68 71 72 71 72 74 71 61 54 52 51 52 54 57 58 57 55 55 51 44 36 27 23 25 28 29 30 30 30 30 30 30 31 31 31 30 30 28 26 25 26 25 24 25 25 25 26 27 28 28 29 29
23 22 22 23 25 26 27 26 27 28 29 30 31 33 35 38 42 48 50 48 50 54 56 61 62 51 43 48 51 53 59 62 64 66 70 72 73 72 72 73 71 62 55 52 52 53 54 56 59 58 57 57 54 47 37 28 23 25 29 30 31 32 31 31 30 30 30 30 30 30 28 27 26 26 26 25 25 25 25 25 26 27 28 28 29 29
23 22 23 23 23 25 25 25 26 28 29 30 31 32 35 38 41 47 50 48 49 52 50 56 63 53 44 47 51 53 59 63 65 69 73 75 75 74 72 73 72 63 55 53 54 55 56 57 59 60 59 59 57 49 37 26 23 25 28 31 32 32 31 31 31 29 29 30 30 28 27 27 27 27 26 26 25 25 25 26 27 28 29 29 29 28
24 22 23 23 22 23 24 24 26 28 29 30 31 31 35 38 40 43 46 47 51 52 48 54 61 52 43 47 51 54 59 63 66 70 73 74 73 73 72 73 72 64 55 54 55 57 58 58 59 61 61 60 58 51 37 25 23 25 28 31 32 31 31 31 30 29 28 29 29 27 27 27 28 27 27 27 26 26 26 26 27 28 29 30 29 28
24 21 22 24 22 22 24 24 26 28 28 29 30 32 36 38 41 43 44 46 51 51 48 56 58 46 39 43 48 52 56 59 62 66 69 71 72 72 73 74 73 65 56 56 56 57 59 59 59 62 62 61 59 53 38 25 22 25 28 30 32 31 31 31 30 28 27 27 26 26 27 28 29 28 28 28 27 26 27 27 28 29 30 30 30 28
24 21 20 23 23 25 26 25 24 25 26 28 30 34 37 39 41 42 44 49 52 49 48 53 52 41 36 41 45 48 51 54 57 61 66 69 72 73 74 77 75 66 58 57 57 57 59 60 60 61 62 61 59 55 41 24 21 25 27 30 31 31 31 31 29 28 27 26 25 26 27 29 29 28 29 29 28 27 28 28 29 30 30 31 30 28
23 21 21 21 21 22 23 22 21 23 25 28 31 35 38 40 40 41 44 48 48 47 46 46 46 44 41 43 46 47 51 55 57 59 65 69 72 74 77 80 77 66 59 58 58 58 59 61 61 61 62 61 59 56 42 25 20 24 26 28 30 31 31 31 29 28 27 25 25 27 29 30 29 29 30 31 29 28 29 30 31 31 31 32 30 28
22 21 23 23 22 21 20 20 20 22 23 25 29 34 39 42 42 41 44 43 43 46 45 40 44 48 44 44 50 51 52 55 56 59 66 70 74 77 79 81 77 66 60 59 60 60 60 62 62 62 62 61 60 56 41 25 20 22 23 25 28 30 31 31 30 29 27 26 27 29 30 31 31 30 32 33 30 30 30 31 32 33 33 32 31 29
21 21 22 22 21 21 21 20 20 22 22 24 28 32 37 41 42 41 41 41 42 47 44 39 44 48 44 45 51 52 53 56 58 61 66 71 75 78 80 82 76 66 61 61 62 61 62 64 64 63 62 62 62 57 42 27 20 19 21 23 26 29 31 30 30 30 28 27 29 30 31 31 32 32 34 34 32 31 32 33 34 34 34 33 31 29
20 22 23 24 21 20 21 21 22 23 22 23 28 31 34 38 41 41 41 41 43 44 42 42 46 45 43 47 51 52 54 57 58 61 65 70 74 76 81 84 76 66 62 63 63 62 62 64 64 63 63 63 62 57 44 30 21 18 19 22 25 29 31 30 30 30 29 29 31 31 32 32 32 33 35 35 33 32 33 35 35 35 35 33 31 29
19 21 22 22 21 20 19 21 22 24 23 23 25 29 33 36 39 41 41 42 44 45 44 46 48 45 43 46 50 52 54 55 56 59 62 66 71 75 82 85 77 67 64 64 64 63 63 65 64 63 63 63 62 58 47 33 23 18 18 21 24 28 30 30 31 32 31 31 32 32 32 32 33 34 37 37 36 35 35 37 38 37 35 34 31 29
20 21 21 21 23 21 18 21 23 22 24 25 26 28 31 34 37 39 41 43 44 43 44 46 47 44 42 44 47 50 53 54 54 55 57 62 69 75 81 84 78 70 66 66 65 64 63 64 64 64 63 62 63 59 49 35 24 18 18 21 24 26 28 29 30 32 32 32 33 33 33 33 33 35 38 39 38 37 37 39 40 39 36 34 32 29
22 23 21 22 25 22 18 21 22 22 27 28 26 26 27 30 34 37 38 40 40 39 42 44 43 40 40 43 46 50 53 54 54 54 56 60 67 75 81 83 79 72 67 68 66 65 64 64 64 64 63 63 64 59 47 35 26 20 19 21 23 25 26 28 30 32 32 32 34 34 33 33 34 35 38 40 39 39 40 41 42 40 38 36 34 31
24 24 22 21 24 23 20 20 20 25 30 27 21 22 24 26 31 33 34 36 37 36 39 41 39 38 41 43 47 51 54 55 54 54 55 59 66 74 80 82 79 72 68 69 68 66 64 63 64 64 63 64 64 57 45 36 28 22 20 21 23 24 25 27 29 31 31 33 34 34 33 33 33 35 39 41 42 42 42 44 44 42 40 37 35 32
23 23 22 21 24 25 23 22 21 22 23 20 19 22 23 24 26 29 30 32 34 35 38 41 39 38 39 41 44 50 54 55 53 52 52 56 63 72 78 81 79 71 67 69 69 66 63 63 64 64 63 64 63 55 44 37 31 25 22 21 22 23 24 26 28 29 31 33 34 34 34 33 33 35 39 42 44 44 45 46 46 44 41 39 36 33
23 23 22 22 25 25 23 24 21 17 15 18 22 24 24 25 26 26 26 27 30 35 39 40 38 36 36 37 42 49 53 53 51 50 50 53 60 68 76 79 77 71 67 68 69 66 63 63 64 64 64 65 63 55 44 37 33 27 23 22 21 22 23 24 26 28 30 32 34 34 34 34 34 35 38 42 45 46 48 49 48 46 43 40 37 33
20 22 23 23 23 23 24 25 23 18 17 20 24 24 23 24 25 25 25 24 27 33 37 37 36 34 33 35 41 49 52 52 50 48 48 51 58 67 73 76 74 70 67 68 69 67 64 64 65 65 65 66 64 56 44 37 34 30 25 22 21 20 21 22 24 27 30 32 34 34 34 35 35 35 37 42 45 48 50 51 50 47 44 41 38 34
20 21 22 23 22 23 26 29 27 23 20 21 23 24 22 21 22 25 27 27 28 31 32 33 34 32 32 36 42 48 51 52 52 49 48 51 57 65 71 73 71 69 67 68 69 67 64 64 65 65 65 65 65 59 46 37 34 32 27 23 20 19 20 21 23 26 29 31 34 35 35 35 35 35 37 41 46 50 52 52 51 49 46 43 40 36
21 21 22 24 25 24 25 30 31 26 21 21 25 25 23 22 23 26 29 30 30 29 29 31 32 31 33 37 42 48 55 56 53 49 49 52 57 63 69 72 70 67 67 69 70 68 65 64 64 65 64 65 66 62 50 38 34 33 29 24 20 18 18 20 22 25 28 31 34 35 35 35 35 34 36 40 46 51 53 53 52 51 48 45 42 38
24 24 26 27 27 26 26 29 28 22 18 22 26 25 23 23 24 28 32 32 29 28 29 30 31 32 34 38 42 50 58 59 54 51 51 54 57 61 68 73 70 66 67 70 71 69 65 64 64 65 64 64 65 62 52 40 35 34 30 25 20 17 17 19 22 24 28 32 35 35 35 34 34 33 34 38 44 49 52 53 53 52 49 46 44 41
25 25 26 27 27 26 27 29 27 21 19 23 24 22 22 24 26 30 32 29 26 27 28 29 30 31 34 39 44 50 55 56 54 52 53 56 58 61 68 72 69 66 67 70 71 69 66 64 64 64 64 64 63 60 52 42 37 34 31 25 20 17 17 19 21 24 27 31 35 34 33 33 32 31 33 37 42 47 51 53 52 51 49 47 45 43
23 24 24 26 27 26 27 29 28 23 20 22 23 22 22 25 26 26 24 23 24 27 27 27 29 30 33 38 44 48 51 53 54 52 53 56 58 61 66 70 68 66 68 71 72 70 66 65 64 63 63 64 63 59 52 44 39 36 31 26 21 17 17 18 20 23 26 30 33 33 30 30 29 28 30 35 40 44 48 51 52 51 50 48 46 44
20 23 25 26 26 26 28 30 27 23 20 20 22 24 25 25 22 20 19 21 24 26 26 27 28 29 33 37 42 47 49 51 52 51 51 55 58 61 66 68 66 66 69 71 73 71 68 65 63 62 62 63 63 61 53 45 41 37 33 28 21 17 16 18 20 22 24 28 31 30 27 26 26 25 28 32 36 41 46 49 51 51 50 48 46 44
19 20 21 22 22 23 26 26 22 20 19 19 18 20 22 21 18 18 20 22 24 25 26 27 28 30 33 36 40 45 47 49 50 49 49 54 59 62 65 67 66 66 69 72 74 72 69 65 63 62 62 62 63 63 56 45 41 39 34 29 23 18 17 19 21 23 25 28 29 28 26 24 23 24 26 30 34 38 43 48 50 50 49 47 45 44
17 16 16 17 19 20 21 20 16 14 15 16 16 16 17 17 17 19 21 23 24 24 25 27 28 30 33 35 39 43 45 46 47 46 47 54 61 65 66 67 67 66 69 74 75 74 71 66 62 61 61 61 62 64 58 46 40 39 35 30 26 21 19 20 22 23 26 28 28 28 25 23 23 24 25 28 32 35 40 46 50 50 49 46 44 43
13 13 14 17 19 18 15 14 14 14 14 14 14 15 15 16 18 20 21 23 23 23 24 26 27 29 32 35 38 41 43 45 45 44 46 54 63 68 68 69 68 66 68 74 77 75 72 67 63 60 60 60 61 63 59 48 41 38 35 31 27 23 20 22 23 24 26 27 27 26 25 24 24 24 25 28 32 35 39 45 50 50 49 47 44 43
13 13 15 17 19 18 14 14 14 15 14 13 14 15 15 16 18 20 21 23 23 23 24 26 27 28 31 34 37 39 41 43 43 42 46 55 65 68 70 71 69 65 67 74 77 76 73 68 63 60 59 59 59 61 58 49 42 38 35 32 29 25 23 23 24 25 25 27 26 26 24 23 24 25 26 28 31 34 38 44 48 51 51 47 44 45
14 15 16 17 18 16 15 14 13 14 14 13 14 15 15 16 18 19 21 22 22 23 25 26 27 29 31 34 37 39 40 41 40 41 47 56 64 67 70 73 69 64 66 73 77 77 74 69 63 59 58 57 57 59 58 50 42 38 35 32 29 27 25 25 25 24 25 26 26 25 23 23 24 25 26 29 32 34 37 42 46 50 52 49 47 49
14 15 16 17 18 18 17 15 14 16 15 13 14 15 15 16 18 19 21 23 23 23 25 26 28 29 31 35 38 39 39 38 37 41 49 57 62 66 72 74 71 65 65 72 78 78 75 70 64 59 58 56 56 58 58 52 42 36 34 32 29 27 26 26 25 24 25 25 25 23 22 22 24 25 27 29 32 35 39 43 46 50 52 51 51 52
14 15 15 17 18 18 16 14 14 16 16 13 14 15 15 16 18 20 21 22 22 24 25 27 28 30 32 36 39 39 39 37 36 40 49 56 60 66 73 76 73 66 64 71 78 79 76 72 66 60 57 56 56 58 59 52 41 34 32 31 29 27 27 27 25 24 24 24 23 22 21 22 23 25 26 28 31 33 37 42 45 48 51 52 52 51
13 14 15 17 17 16 13 12 13 15 15 13 13 15 15 17 18 20 21 22 22 23 25 27 29 30 33 36 40 40 39 37 35 39 47 53 58 65 73 78 74 67 65 71 78 80 77 73 68 61 57 55 56 59 58 50 39 33 30 29 28 27 27 27 25 24 23 23 22 21 21 21 23 24 25 27 30 32 34 38 42 46 49 51 51 48